When you browse on this site, cookies collect data to enhance your experience and personalize the content and advertising you see.
Visit our Privacy Policy to learn more. By continuing to use the site, you agree to this use of cookies and data.
  • în România
  • Lista ţărilor
  • Pe 7 zile
  • Temperatura apei
  • Hartă satelitară
  • Meteo pe hartă
  • Widget-uri
  • user-avatar
    Intrare

    Meteo pe oră la Maracay

    Astăzi, 18 Aprilie, Joi

    Timp Temperatura Precipitaţii Vânt Presiune Umiditate
    00:00 +25°C° 0 mm 1 m/s 711 mmHg 84%
    01:00 +24°C° 0 mm 1 m/s 710 mmHg 83%
    02:00 +24°C° 0 mm 1 m/s 710 mmHg 84%
    03:00 +24°C° 0 mm 1 m/s 710 mmHg 84%
    04:00 +24°C° 0 mm 1 m/s 710 mmHg 85%
    05:00 +24°C° 0 mm 1 m/s 711 mmHg 83%
    06:00 +25°C° 0 mm 1 m/s 711 mmHg 81%
    07:00 +25°C° 0 mm 1 m/s 712 mmHg 78%
    08:00 +27°C° 0 mm 1 m/s 712 mmHg 72%
    09:00 +28°C° 0 mm 1 m/s 712 mmHg 65%
    10:00 +30°C° 0 mm 1 m/s 713 mmHg 59%
    11:00 +30°C° 0.3 mm 1 m/s 712 mmHg 59%
    12:00 +30°C° 0.3 mm 1 m/s 712 mmHg 58%
    13:00 +30°C° 0.3 mm 1 m/s 711 mmHg 58%
    14:00 +29°C° 0.5 mm 1 m/s 711 mmHg 61%
    15:00 +29°C° 0.5 mm 1 m/s 710 mmHg 64%
    16:00 +28°C° 0.5 mm 1 m/s 710 mmHg 67%
    17:00 +27°C° 0.7 mm 1 m/s 710 mmHg 72%
    18:00 +26°C° 0.7 mm 1 m/s 710 mmHg 76%
    19:00 +26°C° 0.7 mm 1 m/s 710 mmHg 81%
    20:00 +25°C° 0.3 mm 1 m/s 711 mmHg 82%
    21:00 +25°C° 0.3 mm 1 m/s 711 mmHg 84%
    22:00 +25°C° 0.3 mm 1 m/s 712 mmHg 86%
    23:00 +24°C° 0 mm 1 m/s 711 mmHg 86%

    Mâine, 19 Aprilie, Vineri

    Timp Temperatura Precipitaţii Vânt Presiune Umiditate
    00:00 +24°C° 0 mm 1 m/s 711 mmHg 86%
    01:00 +24°C° 0 mm 1 m/s 711 mmHg 87%
    02:00 +24°C° 0 mm 1 m/s 710 mmHg 87%
    03:00 +24°C° 0 mm 1 m/s 710 mmHg 87%
    04:00 +24°C° 0 mm 1 m/s 710 mmHg 88%
    05:00 +24°C° 0 mm 1 m/s 711 mmHg 84%
    06:00 +25°C° 0 mm 1 m/s 711 mmHg 80%
    07:00 +26°C° 0 mm 1 m/s 712 mmHg 76%
    08:00 +28°C° 0 mm 1 m/s 712 mmHg 68%
    09:00 +29°C° 0 mm 1 m/s 713 mmHg 61%
    10:00 +31°C° 0 mm 1 m/s 713 mmHg 53%
    11:00 +31°C° 0.1 mm 1 m/s 713 mmHg 52%
    12:00 +32°C° 0.1 mm 2 m/s 712 mmHg 52%
    13:00 +32°C° 0.1 mm 2 m/s 711 mmHg 51%
    14:00 +31°C° 0.2 mm 2 m/s 711 mmHg 54%
    15:00 +30°C° 0.2 mm 1 m/s 710 mmHg 58%
    16:00 +29°C° 0.2 mm 1 m/s 710 mmHg 61%
    17:00 +28°C° 0.4 mm 1 m/s 710 mmHg 66%
    18:00 +27°C° 0.4 mm 1 m/s 710 mmHg 71%
    19:00 +26°C° 0.4 mm 1 m/s 711 mmHg 76%
    20:00 +26°C° 0 mm 1 m/s 711 mmHg 78%
    21:00 +26°C° 0 mm 1 m/s 712 mmHg 79%
    22:00 +25°C° 0 mm 1 m/s 712 mmHg 81%
    23:00 +25°C° 0 mm 1 m/s 712 mmHg 82%

    Poimâine, 20 Aprilie, Sâmbătă

    Timp Temperatura Precipitaţii Vânt Presiune Umiditate
    00:00 +25°C° 0 mm 1 m/s 711 mmHg 82%
    01:00 +24°C° 0 mm 1 m/s 711 mmHg 83%
    02:00 +24°C° 0 mm 1 m/s 711 mmHg 84%
    03:00 +24°C° 0 mm 1 m/s 711 mmHg 85%
    04:00 +24°C° 0 mm 1 m/s 711 mmHg 86%
    05:00 +25°C° 0 mm 1 m/s 711 mmHg 82%
    06:00 +26°C° 0 mm 1 m/s 712 mmHg 77%
    07:00 +27°C° 0 mm 1 m/s 713 mmHg 73%
    08:00 +29°C° 0.2 mm 1 m/s 713 mmHg 65%
    09:00 +31°C° 0.2 mm 1 m/s 714 mmHg 58%
    10:00 +33°C° 0.2 mm 1 m/s 714 mmHg 50%
    11:00 +32°C° 1.2 mm 1 m/s 713 mmHg 54%
    12:00 +31°C° 1.2 mm 1 m/s 712 mmHg 57%
    13:00 +30°C° 1.2 mm 1 m/s 711 mmHg 61%
    14:00 +29°C° 1.7 mm 2 m/s 711 mmHg 65%
    15:00 +28°C° 1.7 mm 2 m/s 710 mmHg 69%
    16:00 +27°C° 1.7 mm 2 m/s 709 mmHg 73%
    17:00 +27°C° 1.7 mm 2 m/s 710 mmHg 76%
    18:00 +26°C° 1.7 mm 1 m/s 710 mmHg 78%
    19:00 +26°C° 1.7 mm 1 m/s 711 mmHg 81%
    20:00 +26°C° 0.4 mm 1 m/s 711 mmHg 82%
    21:00 +25°C° 0.4 mm 1 m/s 712 mmHg 84%
    22:00 +25°C° 0.4 mm 1 m/s 712 mmHg 85%
    23:00 +25°C° 0 mm 1 m/s 712 mmHg 86%

    21 Aprilie, Duminică

    Timp Temperatura Precipitaţii Vânt Presiune Umiditate
    00:00 +25°C° 0 mm 1 m/s 711 mmHg 87%
    01:00 +24°C° 0 mm 1 m/s 711 mmHg 88%
    02:00 +24°C° 0.2 mm 1 m/s 711 mmHg 89%
    03:00 +24°C° 0.2 mm 1 m/s 711 mmHg 89%
    04:00 +24°C° 0.2 mm 1 m/s 710 mmHg 90%
    05:00 +25°C° 0.4 mm 1 m/s 711 mmHg 86%
    06:00 +25°C° 0.4 mm 1 m/s 712 mmHg 83%
    07:00 +26°C° 0.4 mm 1 m/s 712 mmHg 79%
    08:00 +27°C° 0.8 mm 1 m/s 712 mmHg 73%
    09:00 +29°C° 0.8 mm 1 m/s 713 mmHg 67%
    10:00 +30°C° 0.8 mm 1 m/s 713 mmHg 61%
    11:00 +30°C° 1.9 mm 1 m/s 712 mmHg 62%
    12:00 +30°C° 1.9 mm 1 m/s 711 mmHg 63%
    13:00 +30°C° 1.9 mm 1 m/s 711 mmHg 64%
    14:00 +29°C° 1.8 mm 2 m/s 710 mmHg 67%
    15:00 +29°C° 1.8 mm 2 m/s 710 mmHg 70%
    16:00 +28°C° 1.8 mm 2 m/s 709 mmHg 73%
    17:00 +27°C° 1.2 mm 2 m/s 709 mmHg 77%
    18:00 +26°C° 1.2 mm 2 m/s 710 mmHg 82%
    19:00 +25°C° 1.2 mm 2 m/s 710 mmHg 86%
    20:00 +25°C° 0.2 mm 2 m/s 711 mmHg 86%
    21:00 +25°C° 0.2 mm 2 m/s 711 mmHg 87%
    22:00 +25°C° 0.2 mm 2 m/s 711 mmHg 87%
    23:00 +24°C° 0 mm 2 m/s 711 mmHg 88%

    22 Aprilie, Luni

    Timp Temperatura Precipitaţii Vânt Presiune Umiditate
    00:00 +24°C° 0 mm 2 m/s 710 mmHg 88%
    01:00 +24°C° 0 mm 2 m/s 710 mmHg 89%
    02:00 +24°C° 0.1 mm 2 m/s 710 mmHg 89%
    03:00 +24°C° 0.1 mm 1 m/s 710 mmHg 90%
    04:00 +24°C° 0.1 mm 1 m/s 710 mmHg 90%
    05:00 +24°C° 0.1 mm 1 m/s 710 mmHg 87%
    06:00 +25°C° 0.1 mm 1 m/s 711 mmHg 83%
    07:00 +26°C° 0.1 mm 1 m/s 712 mmHg 80%
    08:00 +28°C° 0.2 mm 1 m/s 712 mmHg 73%
    09:00 +29°C° 0.2 mm 1 m/s 712 mmHg 66%
    10:00 +31°C° 0.2 mm 1 m/s 712 mmHg 59%
    11:00 +31°C° 0.8 mm 1 m/s 711 mmHg 59%
    12:00 +31°C° 0.8 mm 1 m/s 710 mmHg 59%
    13:00 +31°C° 0.8 mm 1 m/s 710 mmHg 59%
    14:00 +30°C° 1.2 mm 1 m/s 709 mmHg 64%
    15:00 +29°C° 1.2 mm 2 m/s 709 mmHg 68%
    16:00 +28°C° 1.2 mm 2 m/s 708 mmHg 72%
    17:00 +27°C° 1.2 mm 2 m/s 709 mmHg 76%
    18:00 +26°C° 1.2 mm 1 m/s 709 mmHg 81%
    19:00 +25°C° 1.2 mm 1 m/s 710 mmHg 86%
    20:00 +25°C° 0.8 mm 1 m/s 710 mmHg 87%
    21:00 +25°C° 0.8 mm 1 m/s 710 mmHg 88%
    22:00 +25°C° 0.8 mm 1 m/s 711 mmHg 89%
    23:00 +25°C° 0.4 mm 1 m/s 710 mmHg 90%

    23 Aprilie, Marţi

    Timp Temperatura Precipitaţii Vânt Presiune Umiditate
    00:00 +24°C° 0.4 mm 2 m/s 710 mmHg 90%
    01:00 +24°C° 0.4 mm 2 m/s 709 mmHg 91%
    02:00 +24°C° 0.1 mm 1 m/s 710 mmHg 91%
    03:00 +24°C° 0.1 mm 1 m/s 710 mmHg 90%
    04:00 +24°C° 0.1 mm 1 m/s 710 mmHg 90%
    05:00 +25°C° 0.4 mm 1 m/s 710 mmHg 87%
    06:00 +25°C° 0.4 mm 1 m/s 711 mmHg 84%
    07:00 +26°C° 0.4 mm 1 m/s 712 mmHg 81%
    08:00 +27°C° 1 mm 1 m/s 712 mmHg 74%
    09:00 +29°C° 1 mm 1 m/s 712 mmHg 68%
    10:00 +31°C° 1 mm 1 m/s 712 mmHg 61%
    11:00 +31°C° 1.2 mm 1 m/s 711 mmHg 62%
    12:00 +31°C° 1.2 mm 1 m/s 711 mmHg 62%
    13:00 +31°C° 1.2 mm 1 m/s 710 mmHg 63%
    14:00 +30°C° 1.5 mm 1 m/s 710 mmHg 67%
    15:00 +29°C° 1.5 mm 1 m/s 709 mmHg 72%
    16:00 +28°C° 1.5 mm 1 m/s 709 mmHg 77%
    17:00 +27°C° 1.6 mm 1 m/s 709 mmHg 80%
    18:00 +26°C° 1.6 mm 1 m/s 710 mmHg 83%
    19:00 +26°C° 1.6 mm 1 m/s 710 mmHg 87%
    20:00 +25°C° 0.6 mm 1 m/s 711 mmHg 87%
    21:00 +25°C° 0.6 mm 1 m/s 711 mmHg 87%
    22:00 +25°C° 0.6 mm 1 m/s 711 mmHg 88%
    23:00 +25°C° 1 mm 1 m/s 711 mmHg 88%
    Arată mai mult